• In Hungary
  • List of Countries
  • For 7 days
  • Water Temperature
  • Satellite Maps
  • Weather Map
  • News
  • Weather Widgets
  • user-avatar
    Login

    Hourly Weather Ravda

    Today, 24 September, Monday

    Time Temperature Precipitation Wind Pressure Humidity
    00:00 +20°C° 0 mm 2 mps 763 mmHg 90%
    01:00 +20°C° 0 mm 2 mps 763 mmHg 91%
    02:00 +20°C° 0 mm 2 mps 762 mmHg 90%
    03:00 +20°C° 0 mm 2 mps 761 mmHg 89%
    04:00 +20°C° 0 mm 2 mps 761 mmHg 88%
    05:00 +19°C° 0 mm 2 mps 761 mmHg 87%
    06:00 +21°C° 0 mm 2 mps 760 mmHg 78%
    07:00 +23°C° 0 mm 2 mps 760 mmHg 69%
    08:00 +25°C° 0 mm 3 mps 759 mmHg 60%
    09:00 +27°C° 0 mm 3 mps 759 mmHg 50%
    10:00 +30°C° 0 mm 4 mps 759 mmHg 41%
    11:00 +33°C° 0 mm 5 mps 759 mmHg 31%
    12:00 +34°C° 0 mm 5 mps 758 mmHg 29%
    13:00 +35°C° 0 mm 5 mps 758 mmHg 27%
    14:00 +36°C° 0 mm 5 mps 757 mmHg 24%
    15:00 +35°C° 0 mm 5 mps 757 mmHg 26%
    16:00 +35°C° 0 mm 4 mps 757 mmHg 28%
    17:00 +34°C° 0 mm 4 mps 757 mmHg 30%
    18:00 +30°C° 0 mm 6 mps 758 mmHg 35%
    19:00 +26°C° 0 mm 8 mps 759 mmHg 40%
    20:00 +22°C° 0 mm 10 mps 760 mmHg 44%
    21:00 +21°C° 0 mm 10 mps 761 mmHg 48%
    22:00 +18°C° 0 mm 10 mps 762 mmHg 52%
    23:00 +17°C° 0 mm 10 mps 763 mmHg 56%

    Tomorrow, 25 September, Tuesday

    Time Temperature Precipitation Wind Pressure Humidity
    00:00 +16°C° 0.2 mm 10 mps 764 mmHg 60%
    01:00 +15°C° 0.2 mm 9 mps 764 mmHg 64%
    02:00 +13°C° 0.2 mm 8 mps 765 mmHg 68%
    03:00 +13°C° 0.1 mm 8 mps 765 mmHg 67%
    04:00 +14°C° 0.1 mm 7 mps 766 mmHg 66%
    05:00 +13°C° 0.1 mm 6 mps 766 mmHg 65%
    06:00 +13°C° 0.1 mm 6 mps 767 mmHg 63%
    07:00 +13°C° 0.1 mm 6 mps 768 mmHg 62%
    08:00 +13°C° 0.1 mm 6 mps 768 mmHg 60%
    09:00 +14°C° 0 mm 5 mps 768 mmHg 54%
    10:00 +16°C° 0 mm 5 mps 769 mmHg 48%
    11:00 +17°C° 0 mm 5 mps 769 mmHg 42%
    12:00 +19°C° 0 mm 5 mps 769 mmHg 37%
    13:00 +20°C° 0 mm 5 mps 769 mmHg 32%
    14:00 +21°C° 0 mm 5 mps 768 mmHg 26%
    15:00 +20°C° 0 mm 5 mps 769 mmHg 29%
    16:00 +19°C° 0 mm 5 mps 769 mmHg 31%
    17:00 +19°C° 0 mm 6 mps 769 mmHg 34%
    18:00 +16°C° 0 mm 6 mps 769 mmHg 40%
    19:00 +15°C° 0 mm 5 mps 770 mmHg 47%
    20:00 +13°C° 0 mm 5 mps 771 mmHg 54%
    21:00 +13°C° 0 mm 6 mps 771 mmHg 52%
    22:00 +11°C° 0 mm 6 mps 771 mmHg 50%
    23:00 +11°C° 0 mm 6 mps 772 mmHg 48%

    Day after tomorrow, 26 September, Wednesday

    Time Temperature Precipitation Wind Pressure Humidity
    00:00 +11°C° 0 mm 6 mps 772 mmHg 47%
    01:00 +10°C° 0 mm 7 mps 772 mmHg 46%
    02:00 +10°C° 0 mm 7 mps 772 mmHg 45%
    03:00 +9°C° 0 mm 7 mps 772 mmHg 47%
    04:00 +9°C° 0 mm 8 mps 773 mmHg 50%
    05:00 +7°C° 0 mm 8 mps 773 mmHg 52%
    06:00 +9°C° 0 mm 8 mps 773 mmHg 51%
    07:00 +10°C° 0 mm 9 mps 773 mmHg 49%
    08:00 +11°C° 0 mm 9 mps 773 mmHg 47%
    09:00 +12°C° 0 mm 9 mps 773 mmHg 42%
    10:00 +14°C° 0 mm 10 mps 774 mmHg 37%
    11:00 +16°C° 0 mm 10 mps 774 mmHg 32%
    12:00 +17°C° 0 mm 10 mps 773 mmHg 31%
    13:00 +17°C° 0 mm 10 mps 773 mmHg 30%
    14:00 +17°C° 0 mm 10 mps 773 mmHg 29%
    15:00 +17°C° 0 mm 10 mps 773 mmHg 31%
    16:00 +16°C° 0 mm 9 mps 773 mmHg 32%
    17:00 +15°C° 0 mm 9 mps 773 mmHg 34%
    18:00 +13°C° 0 mm 9 mps 773 mmHg 37%
    19:00 +12°C° 0 mm 8 mps 773 mmHg 39%
    20:00 +11°C° 0 mm 8 mps 774 mmHg 42%
    21:00 +10°C° 0 mm 8 mps 774 mmHg 44%
    22:00 +10°C° 0 mm 8 mps 774 mmHg 45%
    23:00 +9°C° 0 mm 8 mps 774 mmHg 47%

    27 September, Thursday

    Time Temperature Precipitation Wind Pressure Humidity
    00:00 +9°C° 0 mm 8 mps 774 mmHg 47%
    01:00 +7°C° 0 mm 8 mps 774 mmHg 48%
    02:00 +7°C° 0 mm 8 mps 773 mmHg 49%
    03:00 +6°C° 0 mm 8 mps 773 mmHg 49%
    04:00 +6°C° 0 mm 8 mps 773 mmHg 49%
    05:00 +6°C° 0 mm 7 mps 773 mmHg 50%
    06:00 +8°C° 0 mm 7 mps 773 mmHg 47%
    07:00 +9°C° 0 mm 7 mps 773 mmHg 43%
    08:00 +10°C° 0 mm 8 mps 773 mmHg 40%
    09:00 +12°C° 0 mm 7 mps 773 mmHg 37%
    10:00 +14°C° 0 mm 7 mps 772 mmHg 35%
    11:00 +16°C° 0 mm 7 mps 772 mmHg 32%
    12:00 +17°C° 0 mm 7 mps 772 mmHg 32%
    13:00 +18°C° 0 mm 7 mps 771 mmHg 31%
    14:00 +18°C° 0 mm 7 mps 771 mmHg 31%
    15:00 +18°C° 0 mm 7 mps 770 mmHg 32%
    16:00 +17°C° 0 mm 6 mps 770 mmHg 34%
    17:00 +17°C° 0 mm 6 mps 770 mmHg 35%
    18:00 +15°C° 0 mm 6 mps 770 mmHg 41%
    19:00 +14°C° 0 mm 5 mps 770 mmHg 46%
    20:00 +12°C° 0 mm 5 mps 770 mmHg 52%
    21:00 +12°C° 0 mm 5 mps 770 mmHg 54%
    22:00 +10°C° 0 mm 5 mps 770 mmHg 55%
    23:00 +11°C° 0 mm 4 mps 769 mmHg 57%

    28 September, Friday

    Time Temperature Precipitation Wind Pressure Humidity
    00:00 +11°C° 0 mm 4 mps 769 mmHg 57%
    01:00 +11°C° 0 mm 4 mps 769 mmHg 56%
    02:00 +10°C° 0 mm 4 mps 769 mmHg 55%
    03:00 +9°C° 0 mm 5 mps 768 mmHg 54%
    04:00 +9°C° 0 mm 5 mps 768 mmHg 53%
    05:00 +9°C° 0 mm 5 mps 768 mmHg 51%
    06:00 +10°C° 0 mm 5 mps 768 mmHg 48%
    07:00 +13°C° 0 mm 5 mps 768 mmHg 44%
    08:00 +14°C° 0 mm 5 mps 767 mmHg 40%
    09:00 +16°C° 0 mm 5 mps 767 mmHg 40%
    10:00 +19°C° 0 mm 5 mps 767 mmHg 39%
    11:00 +21°C° 0 mm 5 mps 767 mmHg 39%
    12:00 +22°C° 0 mm 5 mps 766 mmHg 38%
    13:00 +23°C° 0 mm 5 mps 766 mmHg 38%
    14:00 +23°C° 0 mm 5 mps 765 mmHg 38%
    15:00 +22°C° 0 mm 5 mps 765 mmHg 42%
    16:00 +22°C° 0 mm 5 mps 764 mmHg 46%
    17:00 +21°C° 0 mm 4 mps 764 mmHg 50%
    18:00 +19°C° 0 mm 4 mps 764 mmHg 58%
    19:00 +17°C° 0 mm 3 mps 764 mmHg 66%
    20:00 +14°C° 0 mm 3 mps 764 mmHg 74%
    21:00 +15°C° 0 mm 2 mps 764 mmHg 76%
    22:00 +15°C° 0 mm 2 mps 763 mmHg 79%
    23:00 +14°C° 0 mm 1 mps 763 mmHg 81%

    29 September, Saturday

    Time Temperature Precipitation Wind Pressure Humidity
    00:00 +14°C° 0 mm 1 mps 763 mmHg 82%
    01:00 +14°C° 0 mm 1 mps 763 mmHg 83%
    02:00 +13°C° 0 mm 1 mps 762 mmHg 85%
    03:00 +13°C° 0 mm 1 mps 762 mmHg 85%
    04:00 +13°C° 0 mm 1 mps 762 mmHg 86%
    05:00 +13°C° 0 mm 1 mps 762 mmHg 87%
    06:00 +14°C° 0 mm 1 mps 762 mmHg 80%
    07:00 +16°C° 0 mm 1 mps 762 mmHg 74%
    08:00 +18°C° 0 mm 1 mps 761 mmHg 68%
    09:00 +20°C° 0 mm 1 mps 761 mmHg 60%
    10:00 +22°C° 0 mm 1 mps 761 mmHg 52%
    11:00 +24°C° 0 mm 1 mps 761 mmHg 44%
    12:00 +25°C° 0 mm 1 mps 760 mmHg 40%
    13:00 +26°C° 0 mm 2 mps 760 mmHg 37%
    14:00 +27°C° 0 mm 2 mps 759 mmHg 34%
    15:00 +26°C° 0 mm 2 mps 759 mmHg 37%
    16:00 +26°C° 0 mm 2 mps 759 mmHg 39%
    17:00 +25°C° 0 mm 3 mps 759 mmHg 41%
    18:00 +22°C° 0.1 mm 3 mps 759 mmHg 51%
    19:00 +20°C° 0.1 mm 3 mps 760 mmHg 62%
    20:00 +18°C° 0.1 mm 3 mps 760 mmHg 72%
    21:00 +18°C° 0.2 mm 2 mps 760 mmHg 76%
    22:00 +18°C° 0.2 mm 1 mps 760 mmHg 80%
    23:00 +18°C° 0.2 mm 1 mps 760 mmHg 84%
    Show more